PRAETORIAN SDA_606

Last updated on Wed Aug 19 2026 00:03:42 GMT+0000 (Coordinated Universal Time)

1 65569U 25203E 26229.35871877 .00000045 00000+0 30160-4 0 9992 2 65569 81.3076 314.4467 0006624 38.8496 321.3135 13.83202040 47140
UTC large
Height (km)
Speed (km/s)
/
Latitude / Longitude
Inclination (degrees)
Orbital Period (minutes)
Azimuth
Elevation
Range (km)
Doppler Factor

Next 0 passes for location: London (51.5072 / 0.1276)

No passes found over London.
PRAETORIAN SDA_606